SCP
-0 -0 -0 -0 0 -0 -0 -0 -0 -0 -0 -0 0 0 0 -0 -0 -0 -0 -0 -0 -0 -0 -0 -0 -0 -0 -0 -0 0 0 0 0 0 0 0 0 0 0 0 0 0 0 -0 -0
-0 -0 0 0 -0 -0 -0 -0 -0 -0 0 0 0 0 0 0 -0 -0 -0 0 0 -0 -0 -0 -0 -0 -0 -0 -0 -0 -0 -0 -0 -0 0 -0 0 0 0 0 0 0 -0 -0 -0
-0 -0 0 0 0 -0 -0 -0 -0 -0 0 0 0 0 0 -0 -0 -0 -0 -0 -0 -0 -0 -0 -0 -0 -0 -0 0 0 0 -0 -0 -0 0 0 -0 -0 -0 -0 0 -0 -0 -0 -0
-0 -0 -0 -0 -0 -0 -0 -0 -0 -0 -0 -0 -0 -0 0 -0 0 0 -0 -0 -0 -0 -0 -0 -0 -0 -0 0 0 -0 0 -0 0 0 0 0 -0 -0 -0 0 -0 -0 -0 -0 -0
-0 -0 -0 -0 -0 -0 -0 -0 -0 -0 -0 -0 -0 -0 -0 0 -0 0 0 0 -0 -0 -0 -0 -0 -0 -0 0 0 0 0 -0 0 0 0 -0 -0 0 -0 0 -0 -0 -0 -0 0
-0 -0 -0 -0 -0 -0 -0 -0 -0 -0 -0 -0 -0 -0 0 -0 0 0 0 -0 -0 0 -0 -0 -0 -0 -0 0 -0 -0 0 0 0 0 0 0 0 0 0 0 0 -0 -0 -0 -0
-0 -0 -0 -0 -0 -0 -0 -0 -0 -0 -0 -0 0 0 -0 0 0 0 0 -0 0 -0 -0 -0 0 -0 -0 0 0 -0 0 -0 0 0 0 -0 -0 0 0 0 0 0 -0 -0 -0
-0 -0 -0 -0 -0 -0 -0 -0 -0 -0 -0 0 0 0 0 0 -0 0 0 -0 0 0 0 0 0 -0 -0 0 -0 -0 0 -0 0 0 0 0 -0 -0 0 0 0 0 0 0 0
-0 -0 -0 -0 -0 -0 -0 -0 0 -0 0 0 0 0 -0 0 0 0 0 -0 0 0 0 -0 0 -0 -0 -0 -0 -0 0 0 0 0 0 0 -0 -0 -0 0 0 0 0 -0 0
-0 -0 -0 -0 -0 -0 -0 0 0 0 0 0 -0 -0 -0 -0 -0 -0 -0 0 -0 -0 -0 -0 -0 -0 -0 -0 0 -0 -0 0 0 0 -0 -0 -0 0 -0 0 -0 0 -0 -0 -0
-0 -0 -0 -0 -0 -0 0 0 0 0 0 0 0 0 0 0 -0 -0 -0 -0 -0 -0 -0 -0 -0 -0 -0 -0 0 0 0 0 0 0 -0 -0 -0 0 -0 -0 -0 -0 -0 -0 -0
-0 0 0 -0 0 0 0 -0 0 0 0 -0 0 0 0 0 0 -0 -0 -0 -0 -0 -0 0 -0 0 0 0 0 -0 0 0 0 0 0 0 -0 0 -0 -0 -0 -0 -0 -0 -0
-0 0 0 0 0 0 -0 0 0 0 0 0 0 -0 0 0 0 -0 -0 -0 -0 -0 -0 -0 -0 -0 0 0 -0 -0 0 0 0 0 -0 0 -0 -0 -0 -0 -0 -0 -0 -0 -0
-0 -0 0 0 0 0 0 0 0 0 0 0 0 0 -0 0 -0 0 -0 0 -0 -0 0 0 0 0 0 0 0 -0 0 0 0 0 0 -0 -0 0 -0 -0 -0 -0 -0 -0 -0
-0 -0 -0 0 0 0 0 0 0 -0 0 0 0 0 0 0 0 -0 0 -0 0 0 0 0 0 -0 -0 0 -0 0 0 0 -0 -0 -0 -0 -0 0 0 0 0 -0 -0 -0 -0
-0 -0 0 0 0 0 0 0 -0 0 0 0 0 0 0 0 0 0 0 -0 0 -0 0 0 0 0 -0 0 -0 0 0 0 -0 -0 -0 0 -0 0 -0 -0 0 0 -0 -0 -0
-0 0 -0 0 0 0 -0 -0 0 0 0 0 0 0 0 0 0 0 0 0 0 0 0 0 0 0 0 -0 -0 0 -0 -0 -0 -0 0 -0 0 0 0 -0 0 0 0 -0 -0
-0 -0 0 -0 0 0 -0 0 0 0 0 0 0 0 0 0 0 0 0 0 0 -0 -0 0 0 -0 0 0 0 0 0 0 0 -0 0 0 0 0 0 0 0 0 0 0 -0
-0 0 0 0 -0 -0 -0 0 0 0 0 0 0 0 0 0 0 0 0 0 0 0 -0 0 0 0 0 0 -0 -0 0 -0 -0 0 0 0 0 0 0 0 0 0 0 0 -0
-0 0 0 0 0 -0 0 -0 0 0 0 0 0 0 -0 0 0 -0 0 0 0 0 0 0 0 0 0 0 0 -0 0 0 0 0 0 0 0 0 0 0 0 0 0 0 0
0 -0 0 0 -0 0 0 0 0 0 0 0 0 0 0 0 0 0 -0 0 0 0 0 0 0 -0 0 0 0 0 -0 0 -0 0 0 0 0 0 -0 0 0 0 0 0 0
-0 0 0 -0 0 0 -0 0 0 0 0 0 0 0 0 0 0 0 -0 0 0 0 0 0 0 0 -0 0 -0 0 0 -0 0 0 0 0 0 0 0 0 -0 0 0 0 0
-0 0 0 -0 -0 0 0 0 0 0 0 0 0 0 0 0 0 0 0 0 0 0 0 0 0 0 0 0 0 0 -0 0 0 -0 0 0 0 0 0 0 0 0 0 0 0
-0 0 0 0 0 0 0 0 0 0 0 0 0 0 0 0 0 0 0 0 0 0 0 0 0 0 0 0 0 0 0 0 0 0 0 0 0 0 0 0 0 0 -0 -0 -0
0 0 0 0 0 0 0 0 0 0 0 0 0 0 0 0 0 0 0 0 0 0 0 0 0 0 0 0 0 0 0 0 -0 -0 0 0 0 0 0 -0 0 0 -0 -0 -0
0 0 0 0 0 0 0 0 0 0 0 0 0 0 0 0 0 0 0 0 0 0 0 0 0 0 0 0 0 0 0 -0 -0 -0 0 0 0 0 0 0 0 0 0 -0 -0
0 0 0 0 0 0 0 0 0 0 0 0 0 0 0 0 0 0 0 0 0 0 0 0 0 0 0 0 0 0 0 0 0 0 0 0 0 0 0 0 0 0 0 0 -0
Wind_Speed_500mb
7 6 6 6 7 7 7 9 8 8 12 16 17 16 14 13 14 16 17 13 21 17 17 12 15 13 12 16 5 15 5 7 11 13 4 16 15 10 8 8 12 7 8 32 30
9 8 8 8 8 8 8 7 8 7 9 13 16 16 14 13 16 28 26 28 21 18 16 17 14 10 25 9 7 17 6 19 16 17 5 22 19 14 14 20 19 19 26 28 29
11 10 10 10 10 9 9 7 6 6 6 9 14 15 14 11 16 30 34 26 22 19 16 16 14 13 28 12 3 2 10 18 20 15 2 11 25 21 14 21 23 26 29 27 24
13 12 12 12 12 12 10 8 6 4 4 5 10 14 14 15 10 7 26 27 25 23 17 17 17 23 21 2 13 4 8 15 13 3 6 10 18 15 16 15 22 27 28 25 24
13 13 13 13 13 13 13 10 8 5 4 5 7 12 14 18 24 7 21 26 29 25 22 21 22 23 22 15 10 2 15 9 9 6 9 6 12 5 42 16 24 29 27 23 20
16 15 15 15 14 14 14 13 11 8 6 7 8 10 14 33 8 7 17 28 28 27 23 21 19 16 22 9 14 5 6 10 7 7 11 9 4 7 11 6 23 25 26 23 21
18 18 18 17 16 15 15 14 12 10 8 8 8 8 20 29 10 12 21 29 30 26 27 20 17 21 16 3 5 9 19 16 11 7 8 16 14 16 12 3 17 24 25 24 21
20 21 20 18 17 17 16 14 12 11 10 9 9 9 25 27 19 18 21 26 26 26 22 12 19 25 20 5 20 19 12 10 15 11 10 21 11 29 32 31 26 32 31 25 24
22 22 22 21 19 19 16 11 11 12 13 12 7 12 27 24 33 30 27 27 25 24 20 15 21 32 18 26 32 15 15 9 16 15 6 18 4 40 36 31 31 27 22 32 23
23 23 23 21 19 18 8 6 7 11 14 12 17 17 32 30 32 38 33 24 27 24 25 25 30 29 26 27 8 18 18 12 8 18 12 14 16 20 31 36 37 33 38 37 38
24 23 22 21 17 13 2 1 5 11 28 33 12 24 4 7 33 36 39 31 31 26 32 37 29 30 31 28 19 16 21 6 10 9 11 17 17 22 35 41 35 42 44 45 42
26 25 22 20 16 12 7 13 11 11 19 42 39 28 11 20 28 38 41 39 38 30 36 31 32 34 32 18 16 23 25 15 6 9 15 23 22 21 31 39 47 52 49 43 44
29 26 22 19 15 15 16 18 10 15 18 27 41 43 35 26 37 42 45 46 31 30 32 35 29 27 36 17 27 28 28 14 12 18 25 25 33 29 29 39 44 47 46 45 44
32 29 20 14 3 8 14 14 9 12 12 27 25 26 44 30 38 35 46 43 32 34 30 31 33 29 22 25 31 33 11 9 23 25 5 37 16 25 29 33 38 52 50 52 48
36 30 18 13 12 12 7 8 7 6 12 18 22 14 30 41 2 51 33 44 38 32 22 30 27 35 31 30 34 31 10 16 22 26 33 26 17 9 18 24 27 45 58 57 54
38 29 17 12 19 16 10 8 4 14 11 17 17 21 27 51 33 24 42 41 31 33 29 37 24 20 30 31 31 16 16 24 27 25 22 21 18 23 21 6 18 32 45 57 61
35 15 7 16 3 16 13 14 14 19 10 13 14 22 29 34 46 27 29 37 32 24 30 32 38 34 25 32 36 32 30 26 23 22 16 18 7 6 14 19 9 17 29 44 59
19 10 6 15 11 14 15 19 18 6 6 7 8 9 24 30 37 33 30 35 40 36 29 25 31 44 33 39 31 26 38 29 16 17 8 21 12 7 11 9 11 13 12 26 49
5 12 7 7 16 17 25 20 15 11 12 13 16 21 27 27 29 35 35 35 38 39 36 25 23 13 31 36 40 36 32 38 36 31 23 19 14 12 18 6 22 15 11 17 40
4 7 8 1 16 17 18 30 9 12 14 21 27 2 26 27 31 32 36 29 37 38 34 37 25 10 21 32 42 42 26 22 23 24 23 18 19 18 13 4 19 20 19 17 30
1 13 4 3 12 22 17 17 5 4 17 17 23 19 21 29 18 31 35 30 25 28 35 35 33 30 19 30 37 33 36 30 37 25 18 23 13 8 16 3 20 22 18 18 23
8 5 3 11 23 17 18 7 8 23 11 19 15 27 27 29 25 29 39 25 19 11 27 29 33 32 43 29 36 43 43 41 24 29 20 27 14 27 20 8 11 20 16 12 13
16 6 3 10 12 11 4 20 11 18 18 11 16 13 23 19 29 30 38 32 6 13 11 25 29 30 40 32 27 41 48 45 42 38 35 23 4 20 13 7 13 18 20 14 17
14 6 12 10 11 17 13 19 13 12 21 20 22 26 23 29 28 26 34 20 21 16 22 26 36 28 31 35 30 43 38 38 41 29 30 29 16 8 10 19 23 16 24 24 26
11 10 10 6 9 18 15 23 20 19 14 12 20 25 26 26 31 31 22 36 44 19 28 33 40 40 45 49 42 36 39 46 45 41 34 28 26 21 39 26 31 27 29 30 32
16 13 16 17 11 15 10 16 12 23 17 25 31 20 7 27 32 39 23 24 24 30 23 25 34 39 45 52 40 41 42 51 49 44 35 36 23 7 16 26 34 36 36 36 35
20 12 14 4 12 14 9 15 18 19 22 21 22 27 26 28 27 39 50 37 38 36 32 32 31 34 44 44 45 42 45 35 36 33 31 34 29 34 31 22 36 42 42 40 38
Wind_Direction_500mb
18 5 1 352 352 349 341 327 317 282 252 241 237 231 230 231 231 230 226 229 216 215 214 209 225 256 274 266 271 288 183 301 13 12 206 156 183 164 309 171 45 79 71 118 147
1 347 339 333 335 339 342 339 326 301 261 241 235 231 229 236 246 247 231 228 219 205 200 201 224 246 262 245 221 267 357 14 354 353 294 156 177 182 188 180 123 110 111 129 143
353 340 329 323 321 324 327 336 331 316 278 241 228 224 224 232 269 241 222 223 201 193 199 233 282 270 271 253 121 343 11 354 29 353 4 160 177 187 237 218 166 136 138 142 147
351 342 328 319 314 312 311 313 317 310 285 247 225 220 216 212 240 155 198 208 193 192 228 239 254 255 266 328 22 142 55 353 13 54 103 150 147 208 71 314 108 138 146 149 159
347 343 332 322 313 307 302 298 297 296 257 229 221 214 207 233 253 253 188 197 195 198 227 236 257 276 287 357 312 80 26 14 42 161 159 152 174 226 170 186 120 134 145 153 163
338 336 332 328 319 306 296 287 277 277 255 227 223 217 217 245 204 203 206 201 193 206 229 243 266 337 294 342 83 291 18 14 105 139 159 155 144 238 130 121 135 153 156 150 147
330 328 324 323 319 309 296 280 264 261 247 229 229 241 246 234 214 216 195 200 200 213 233 239 264 267 331 64 16 294 264 179 116 138 186 198 178 209 160 175 169 181 177 144 152
324 321 316 317 318 310 297 277 256 247 232 222 220 231 248 221 226 203 187 191 203 212 235 264 241 265 268 268 228 235 267 122 118 152 157 229 256 175 184 191 198 204 176 161 160
326 320 313 314 318 315 301 273 248 235 224 217 211 217 245 227 217 202 195 197 200 212 225 236 243 251 236 250 237 254 187 55 141 162 150 225 278 160 184 190 206 198 219 179 188
327 324 317 312 315 322 303 266 241 228 216 219 236 231 230 227 205 200 200 207 199 211 218 226 232 242 233 252 200 234 324 45 67 146 211 221 247 151 185 196 200 190 217 209 179
329 325 321 311 308 319 239 8 233 221 212 221 239 226 155 198 181 195 195 202 213 218 225 214 237 238 244 236 282 329 280 298 73 91 254 240 249 199 174 193 204 204 215 216 200
333 326 322 309 291 284 230 221 329 335 283 230 237 233 222 189 190 200 196 208 217 228 220 242 225 250 254 270 291 267 272 262 161 196 245 256 249 218 179 203 200 204 210 215 195
331 324 322 310 289 258 219 243 265 323 260 251 218 221 212 214 219 193 196 209 223 230 239 235 233 214 246 242 237 243 262 279 314 284 240 263 251 224 201 193 199 204 210 208 212
328 321 320 318 317 213 247 235 247 302 270 168 196 225 207 205 232 210 200 216 225 244 239 243 245 246 250 248 243 252 13 353 287 271 245 240 278 244 165 193 198 196 206 214 205
325 318 305 256 223 208 177 193 265 241 268 141 131 136 191 199 257 201 202 213 239 226 246 241 235 241 234 247 223 256 64 273 280 276 277 262 278 151 243 186 197 204 201 209 208
326 318 293 250 227 193 225 226 249 232 251 147 145 192 205 204 225 157 199 221 231 253 243 255 253 242 252 226 250 230 268 245 247 255 266 204 237 111 238 203 180 187 203 203 198
331 332 288 184 161 207 209 202 228 246 96 159 205 180 206 201 219 170 207 205 220 221 234 222 242 238 220 249 224 223 236 239 228 232 314 169 246 190 186 204 182 191 191 201 196
340 352 9 197 221 190 189 220 255 349 320 75 274 229 237 217 209 196 215 219 215 236 272 225 217 213 220 233 217 219 235 252 272 269 340 352 270 137 319 55 166 190 203 192 195
20 25 355 291 203 185 211 224 251 337 27 313 283 246 224 231 218 207 217 221 223 217 252 278 240 233 209 213 245 211 216 258 287 285 264 274 207 91 46 319 164 172 154 197 188
125 207 9 30 168 180 236 252 318 331 319 286 278 261 280 194 213 241 218 227 239 226 225 258 265 196 199 214 220 243 250 226 234 264 278 257 225 99 160 216 161 167 171 174 189
159 226 37 158 163 213 238 243 297 240 309 292 288 282 272 289 281 226 244 240 226 249 214 237 257 269 193 208 226 209 240 253 275 266 301 243 99 101 310 58 164 176 137 175 192
290 263 133 160 229 228 264 337 26 277 258 270 276 281 289 298 290 271 266 263 17 254 269 231 241 246 254 218 220 243 218 231 240 237 264 300 304 157 243 155 179 132 129 171 192
315 8 178 225 272 208 126 264 272 281 264 284 274 284 288 285 280 269 275 278 318 261 273 277 242 251 256 239 212 217 238 230 229 246 262 255 146 162 159 192 177 151 146 153 173
304 249 153 237 302 298 321 276 268 177 292 283 292 300 275 267 258 256 275 272 264 257 343 300 271 241 251 250 222 203 227 247 255 253 252 236 177 151 249 193 159 171 153 161 169
354 47 349 333 71 332 309 304 290 280 214 289 282 266 281 305 296 271 271 263 261 247 263 253 256 264 263 266 264 260 203 224 236 245 264 260 240 193 190 184 163 167 166 163 164
1 341 337 285 295 278 222 277 321 307 334 288 290 268 258 285 286 288 294 298 315 306 245 273 274 262 258 264 263 255 259 209 221 232 245 259 230 211 353 134 155 167 170 168 169
8 336 297 244 307 279 21 345 315 319 291 268 304 298 281 283 324 305 302 284 270 279 284 289 281 266 247 251 255 256 244 241 253 246 232 251 259 156 174 176 166 171 175 170 170
Wind_Speed_850mb
7 6 6 6 7 7 7 9 8 8 12 16 17 16 14 13 14 16 17 13 21 17 17 12 15 13 12 16 5 15 5 7 11 13 4 16 15 10 8 8 12 7 8 32 30
9 8 8 8 8 8 8 7 8 7 9 13 16 16 14 13 16 28 26 28 21 18 16 17 14 10 25 9 7 17 6 19 16 17 5 22 19 14 14 20 19 19 26 28 29
11 10 10 10 10 9 9 7 6 6 6 9 14 15 14 11 16 30 34 26 22 19 16 16 14 13 28 12 3 2 10 18 20 15 2 11 25 21 14 21 23 26 29 27 24
13 12 12 12 12 12 10 8 6 4 4 5 10 14 14 15 10 7 26 27 25 23 17 17 17 23 21 2 13 4 8 15 13 3 6 10 18 15 16 15 22 27 28 25 24
13 13 13 13 13 13 13 10 8 5 4 5 7 12 14 18 24 7 21 26 29 25 22 21 22 23 22 15 10 2 15 9 9 6 9 6 12 5 42 16 24 29 27 23 20
16 15 15 15 14 14 14 13 11 8 6 7 8 10 14 33 8 7 17 28 28 27 23 21 19 16 22 9 14 5 6 10 7 7 11 9 4 7 11 6 23 25 26 23 21
18 18 18 17 16 15 15 14 12 10 8 8 8 8 20 29 10 12 21 29 30 26 27 20 17 21 16 3 5 9 19 16 11 7 8 16 14 16 12 3 17 24 25 24 21
20 21 20 18 17 17 16 14 12 11 10 9 9 9 25 27 19 18 21 26 26 26 22 12 19 25 20 5 20 19 12 10 15 11 10 21 11 29 32 31 26 32 31 25 24
22 22 22 21 19 19 16 11 11 12 13 12 7 12 27 24 33 30 27 27 25 24 20 15 21 32 18 26 32 15 15 9 16 15 6 18 4 40 36 31 31 27 22 32 23
23 23 23 21 19 18 8 6 7 11 14 12 17 17 32 30 32 38 33 24 27 24 25 25 30 29 26 27 8 18 18 12 8 18 12 14 16 20 31 36 37 33 38 37 38
24 23 22 21 17 13 2 1 5 11 28 33 12 24 4 7 33 36 39 31 31 26 32 37 29 30 31 28 19 16 21 6 10 9 11 17 17 22 35 41 35 42 44 45 42
26 25 22 20 16 12 7 13 11 11 19 42 39 28 11 20 28 38 41 39 38 30 36 31 32 34 32 18 16 23 25 15 6 9 15 23 22 21 31 39 47 52 49 43 44
29 26 22 19 15 15 16 18 10 15 18 27 41 43 35 26 37 42 45 46 31 30 32 35 29 27 36 17 27 28 28 14 12 18 25 25 33 29 29 39 44 47 46 45 44
32 29 20 14 3 8 14 14 9 12 12 27 25 26 44 30 38 35 46 43 32 34 30 31 33 29 22 25 31 33 11 9 23 25 5 37 16 25 29 33 38 52 50 52 48
36 30 18 13 12 12 7 8 7 6 12 18 22 14 30 41 2 51 33 44 38 32 22 30 27 35 31 30 34 31 10 16 22 26 33 26 17 9 18 24 27 45 58 57 54
38 29 17 12 19 16 10 8 4 14 11 17 17 21 27 51 33 24 42 41 31 33 29 37 24 20 30 31 31 16 16 24 27 25 22 21 18 23 21 6 18 32 45 57 61
35 15 7 16 3 16 13 14 14 19 10 13 14 22 29 34 46 27 29 37 32 24 30 32 38 34 25 32 36 32 30 26 23 22 16 18 7 6 14 19 9 17 29 44 59
19 10 6 15 11 14 15 19 18 6 6 7 8 9 24 30 37 33 30 35 40 36 29 25 31 44 33 39 31 26 38 29 16 17 8 21 12 7 11 9 11 13 12 26 49
5 12 7 7 16 17 25 20 15 11 12 13 16 21 27 27 29 35 35 35 38 39 36 25 23 13 31 36 40 36 32 38 36 31 23 19 14 12 18 6 22 15 11 17 40
4 7 8 1 16 17 18 30 9 12 14 21 27 2 26 27 31 32 36 29 37 38 34 37 25 10 21 32 42 42 26 22 23 24 23 18 19 18 13 4 19 20 19 17 30
1 13 4 3 12 22 17 17 5 4 17 17 23 19 21 29 18 31 35 30 25 28 35 35 33 30 19 30 37 33 36 30 37 25 18 23 13 8 16 3 20 22 18 18 23
8 5 3 11 23 17 18 7 8 23 11 19 15 27 27 29 25 29 39 25 19 11 27 29 33 32 43 29 36 43 43 41 24 29 20 27 14 27 20 8 11 20 16 12 13
16 6 3 10 12 11 4 20 11 18 18 11 16 13 23 19 29 30 38 32 6 13 11 25 29 30 40 32 27 41 48 45 42 38 35 23 4 20 13 7 13 18 20 14 17
14 6 12 10 11 17 13 19 13 12 21 20 22 26 23 29 28 26 34 20 21 16 22 26 36 28 31 35 30 43 38 38 41 29 30 29 16 8 10 19 23 16 24 24 26
11 10 10 6 9 18 15 23 20 19 14 12 20 25 26 26 31 31 22 36 44 19 28 33 40 40 45 49 42 36 39 46 45 41 34 28 26 21 39 26 31 27 29 30 32
16 13 16 17 11 15 10 16 12 23 17 25 31 20 7 27 32 39 23 24 24 30 23 25 34 39 45 52 40 41 42 51 49 44 35 36 23 7 16 26 34 36 36 36 35
20 12 14 4 12 14 9 15 18 19 22 21 22 27 26 28 27 39 50 37 38 36 32 32 31 34 44 44 45 42 45 35 36 33 31 34 29 34 31 22 36 42 42 40 38
Wind_Direction_850mb
18 5 1 352 352 349 341 327 317 282 252 241 237 231 230 231 231 230 226 229 216 215 214 209 225 256 274 266 271 288 183 301 13 12 206 156 183 164 309 171 45 79 71 118 147
1 347 339 333 335 339 342 339 326 301 261 241 235 231 229 236 246 247 231 228 219 205 200 201 224 246 262 245 221 267 357 14 354 353 294 156 177 182 188 180 123 110 111 129 143
353 340 329 323 321 324 327 336 331 316 278 241 228 224 224 232 269 241 222 223 201 193 199 233 282 270 271 253 121 343 11 354 29 353 4 160 177 187 237 218 166 136 138 142 147
351 342 328 319 314 312 311 313 317 310 285 247 225 220 216 212 240 155 198 208 193 192 228 239 254 255 266 328 22 142 55 353 13 54 103 150 147 208 71 314 108 138 146 149 159
347 343 332 322 313 307 302 298 297 296 257 229 221 214 207 233 253 253 188 197 195 198 227 236 257 276 287 357 312 80 26 14 42 161 159 152 174 226 170 186 120 134 145 153 163
338 336 332 328 319 306 296 287 277 277 255 227 223 217 217 245 204 203 206 201 193 206 229 243 266 337 294 342 83 291 18 14 105 139 159 155 144 238 130 121 135 153 156 150 147
330 328 324 323 319 309 296 280 264 261 247 229 229 241 246 234 214 216 195 200 200 213 233 239 264 267 331 64 16 294 264 179 116 138 186 198 178 209 160 175 169 181 177 144 152
324 321 316 317 318 310 297 277 256 247 232 222 220 231 248 221 226 203 187 191 203 212 235 264 241 265 268 268 228 235 267 122 118 152 157 229 256 175 184 191 198 204 176 161 160
326 320 313 314 318 315 301 273 248 235 224 217 211 217 245 227 217 202 195 197 200 212 225 236 243 251 236 250 237 254 187 55 141 162 150 225 278 160 184 190 206 198 219 179 188
327 324 317 312 315 322 303 266 241 228 216 219 236 231 230 227 205 200 200 207 199 211 218 226 232 242 233 252 200 234 324 45 67 146 211 221 247 151 185 196 200 190 217 209 179
329 325 321 311 308 319 239 8 233 221 212 221 239 226 155 198 181 195 195 202 213 218 225 214 237 238 244 236 282 329 280 298 73 91 254 240 249 199 174 193 204 204 215 216 200
333 326 322 309 291 284 230 221 329 335 283 230 237 233 222 189 190 200 196 208 217 228 220 242 225 250 254 270 291 267 272 262 161 196 245 256 249 218 179 203 200 204 210 215 195
331 324 322 310 289 258 219 243 265 323 260 251 218 221 212 214 219 193 196 209 223 230 239 235 233 214 246 242 237 243 262 279 314 284 240 263 251 224 201 193 199 204 210 208 212
328 321 320 318 317 213 247 235 247 302 270 168 196 225 207 205 232 210 200 216 225 244 239 243 245 246 250 248 243 252 13 353 287 271 245 240 278 244 165 193 198 196 206 214 205
325 318 305 256 223 208 177 193 265 241 268 141 131 136 191 199 257 201 202 213 239 226 246 241 235 241 234 247 223 256 64 273 280 276 277 262 278 151 243 186 197 204 201 209 208
326 318 293 250 227 193 225 226 249 232 251 147 145 192 205 204 225 157 199 221 231 253 243 255 253 242 252 226 250 230 268 245 247 255 266 204 237 111 238 203 180 187 203 203 198
331 332 288 184 161 207 209 202 228 246 96 159 205 180 206 201 219 170 207 205 220 221 234 222 242 238 220 249 224 223 236 239 228 232 314 169 246 190 186 204 182 191 191 201 196
340 352 9 197 221 190 189 220 255 349 320 75 274 229 237 217 209 196 215 219 215 236 272 225 217 213 220 233 217 219 235 252 272 269 340 352 270 137 319 55 166 190 203 192 195
20 25 355 291 203 185 211 224 251 337 27 313 283 246 224 231 218 207 217 221 223 217 252 278 240 233 209 213 245 211 216 258 287 285 264 274 207 91 46 319 164 172 154 197 188
125 207 9 30 168 180 236 252 318 331 319 286 278 261 280 194 213 241 218 227 239 226 225 258 265 196 199 214 220 243 250 226 234 264 278 257 225 99 160 216 161 167 171 174 189
159 226 37 158 163 213 238 243 297 240 309 292 288 282 272 289 281 226 244 240 226 249 214 237 257 269 193 208 226 209 240 253 275 266 301 243 99 101 310 58 164 176 137 175 192
290 263 133 160 229 228 264 337 26 277 258 270 276 281 289 298 290 271 266 263 17 254 269 231 241 246 254 218 220 243 218 231 240 237 264 300 304 157 243 155 179 132 129 171 192
315 8 178 225 272 208 126 264 272 281 264 284 274 284 288 285 280 269 275 278 318 261 273 277 242 251 256 239 212 217 238 230 229 246 262 255 146 162 159 192 177 151 146 153 173
304 249 153 237 302 298 321 276 268 177 292 283 292 300 275 267 258 256 275 272 264 257 343 300 271 241 251 250 222 203 227 247 255 253 252 236 177 151 249 193 159 171 153 161 169
354 47 349 333 71 332 309 304 290 280 214 289 282 266 281 305 296 271 271 263 261 247 263 253 256 264 263 266 264 260 203 224 236 245 264 260 240 193 190 184 163 167 166 163 164
1 341 337 285 295 278 222 277 321 307 334 288 290 268 258 285 286 288 294 298 315 306 245 273 274 262 258 264 263 255 259 209 221 232 245 259 230 211 353 134 155 167 170 168 169
8 336 297 244 307 279 21 345 315 319 291 268 304 298 281 283 324 305 302 284 270 279 284 289 281 266 247 251 255 256 244 241 253 246 232 251 259 156 174 176 166 171 175 170 170